Вернуться в каталог

STARLINK-35422

АктивенСвязьVLEO
NORAD 66068·PAYLOAD·🇺🇸 United States

Запущен Oct 19, 2025 с Cape Canaveral Space Force Station

Loading…

Ближайшие Пролёты (ближайшие 24 часа)

TLE

СвежийSource: CelesTrak SupGP

Эпоха: Sep 14, 2026, 22:36 UTC

1 66068C 25235L   26257.94215278 -.00009285  00000+0 -27439-3 0  2573
2 66068  53.1580  83.4775 0001072  83.0648 341.0718 15.34389973    10

Отслеживайте STARLINK-35422 в реальном времени с AllMySat

Download on the App Store